• In Deutschland
  • Länderverzeichnis
  • Für 7 Tage
  • Wassertemperatur
  • Satellitenkarten
  • Wetterkarte
  • Widgets
  • user-avatar
    Anmelden

    Stündliche Wetter Heilbronn

    Heute, 23 September, Sonntag

    Zeit Temperatur Niederschläge Wind Luftdruck Luftfeuchtigkeit
    00:00 +13°C° 0.5 mm 2 m/S 750 mmHg 82%
    01:00 +12°C° 0 mm 3 m/S 750 mmHg 83%
    02:00 +13°C° 0.2 mm 3 m/S 749 mmHg 84%
    03:00 +13°C° 0.2 mm 3 m/S 748 mmHg 84%
    04:00 +13°C° 0.2 mm 3 m/S 748 mmHg 85%
    05:00 +14°C° 0.6 mm 3 m/S 747 mmHg 85%
    06:00 +14°C° 0.6 mm 3 m/S 746 mmHg 85%
    07:00 +14°C° 0 mm 4 m/S 746 mmHg 83%
    08:00 +15°C° 0.2 mm 4 m/S 746 mmHg 84%
    09:00 +16°C° 0.2 mm 5 m/S 746 mmHg 84%
    10:00 +17°C° 0.2 mm 6 m/S 745 mmHg 85%
    11:00 +18°C° 0.2 mm 7 m/S 745 mmHg 82%
    12:00 +21°C° 0.2 mm 7 m/S 744 mmHg 79%
    13:00 +22°C° 0.2 mm 8 m/S 743 mmHg 76%
    14:00 +23°C° 0 mm 9 m/S 742 mmHg 72%
    15:00 +24°C° 0 mm 9 m/S 741 mmHg 68%
    16:00 +26°C° 0 mm 10 m/S 740 mmHg 64%
    17:00 +22°C° 3.6 mm 10 m/S 741 mmHg 72%
    18:00 +18°C° 3.6 mm 9 m/S 741 mmHg 79%
    19:00 +15°C° 3.6 mm 8 m/S 742 mmHg 87%
    20:00 +14°C° 2.1 mm 7 m/S 744 mmHg 87%
    21:00 +11°C° 2.1 mm 6 m/S 746 mmHg 87%
    22:00 +10°C° 2.1 mm 5 m/S 749 mmHg 88%
    23:00 +9°C° 0.1 mm 5 m/S 750 mmHg 88%

    Morgen, 24 September, Montag

    Zeit Temperatur Niederschläge Wind Luftdruck Luftfeuchtigkeit
    00:00 +10°C° 0.1 mm 4 m/S 752 mmHg 88%
    01:00 +10°C° 0.1 mm 4 m/S 754 mmHg 88%
    02:00 +9°C° 0.1 mm 3 m/S 755 mmHg 88%
    03:00 +9°C° 0.1 mm 3 m/S 756 mmHg 89%
    04:00 +9°C° 0.1 mm 3 m/S 757 mmHg 90%
    05:00 +8°C° 0 mm 2 m/S 757 mmHg 90%
    06:00 +8°C° 0 mm 2 m/S 758 mmHg 91%
    07:00 +8°C° 0 mm 2 m/S 759 mmHg 92%
    08:00 +9°C° 0 mm 2 m/S 759 mmHg 83%
    09:00 +10°C° 0 mm 3 m/S 760 mmHg 75%
    10:00 +12°C° 0 mm 3 m/S 760 mmHg 67%
    11:00 +13°C° 0 mm 3 m/S 760 mmHg 60%
    12:00 +14°C° 0 mm 3 m/S 760 mmHg 53%
    13:00 +16°C° 0 mm 3 m/S 760 mmHg 45%
    14:00 +16°C° 0 mm 3 m/S 760 mmHg 45%
    15:00 +16°C° 0 mm 3 m/S 760 mmHg 45%
    16:00 +16°C° 0 mm 3 m/S 759 mmHg 44%
    17:00 +14°C° 0 mm 2 m/S 760 mmHg 50%
    18:00 +13°C° 0 mm 2 m/S 760 mmHg 56%
    19:00 +11°C° 0 mm 1 m/S 760 mmHg 62%
    20:00 +11°C° 0 mm 1 m/S 761 mmHg 65%
    21:00 +10°C° 0 mm 1 m/S 761 mmHg 68%
    22:00 +9°C° 0 mm 1 m/S 762 mmHg 71%
    23:00 +9°C° 0 mm 1 m/S 762 mmHg 74%

    übermorgen, 25 September, Dienstag

    Zeit Temperatur Niederschläge Wind Luftdruck Luftfeuchtigkeit
    00:00 +9°C° 0 mm 1 m/S 762 mmHg 77%
    01:00 +8°C° 0 mm 1 m/S 762 mmHg 80%
    02:00 +8°C° 0 mm 1 m/S 762 mmHg 82%
    03:00 +7°C° 0 mm 1 m/S 762 mmHg 84%
    04:00 +7°C° 0 mm 1 m/S 762 mmHg 86%
    05:00 +7°C° 0 mm 1 m/S 762 mmHg 86%
    06:00 +7°C° 0 mm 1 m/S 763 mmHg 85%
    07:00 +7°C° 0 mm 1 m/S 763 mmHg 85%
    08:00 +8°C° 0 mm 2 m/S 763 mmHg 75%
    09:00 +10°C° 0 mm 3 m/S 763 mmHg 64%
    10:00 +12°C° 0 mm 3 m/S 763 mmHg 53%
    11:00 +13°C° 0 mm 3 m/S 762 mmHg 49%
    12:00 +14°C° 0 mm 3 m/S 762 mmHg 45%
    13:00 +16°C° 0 mm 3 m/S 762 mmHg 41%
    14:00 +16°C° 0 mm 3 m/S 761 mmHg 42%
    15:00 +15°C° 0 mm 4 m/S 761 mmHg 43%
    16:00 +15°C° 0 mm 4 m/S 761 mmHg 44%
    17:00 +13°C° 0 mm 3 m/S 761 mmHg 50%
    18:00 +12°C° 0 mm 3 m/S 761 mmHg 56%
    19:00 +10°C° 0 mm 2 m/S 761 mmHg 62%
    20:00 +9°C° 0 mm 2 m/S 761 mmHg 64%
    21:00 +9°C° 0 mm 2 m/S 761 mmHg 66%
    22:00 +8°C° 0 mm 2 m/S 761 mmHg 68%
    23:00 +8°C° 0 mm 2 m/S 761 mmHg 69%

    26 September, Mittwoch

    Zeit Temperatur Niederschläge Wind Luftdruck Luftfeuchtigkeit
    00:00 +7°C° 0 mm 2 m/S 761 mmHg 70%
    01:00 +7°C° 0 mm 2 m/S 761 mmHg 71%
    02:00 +6°C° 0 mm 2 m/S 760 mmHg 72%
    03:00 +6°C° 0 mm 2 m/S 760 mmHg 72%
    04:00 +6°C° 0 mm 2 m/S 760 mmHg 73%
    05:00 +6°C° 0 mm 2 m/S 760 mmHg 73%
    06:00 +6°C° 0 mm 2 m/S 760 mmHg 72%
    07:00 +5°C° 0 mm 2 m/S 760 mmHg 72%
    08:00 +8°C° 0 mm 2 m/S 760 mmHg 64%
    09:00 +10°C° 0 mm 2 m/S 760 mmHg 56%
    10:00 +14°C° 0 mm 2 m/S 760 mmHg 48%
    11:00 +16°C° 0 mm 1 m/S 759 mmHg 44%
    12:00 +19°C° 0 mm 1 m/S 759 mmHg 40%
    13:00 +21°C° 0 mm 1 m/S 759 mmHg 36%
    14:00 +21°C° 0 mm 1 m/S 758 mmHg 37%
    15:00 +21°C° 0 mm 1 m/S 758 mmHg 37%
    16:00 +19°C° 0 mm 0 m/S 758 mmHg 37%
    17:00 +17°C° 0 mm 0 m/S 758 mmHg 43%
    18:00 +14°C° 0 mm 0 m/S 758 mmHg 48%
    19:00 +12°C° 0 mm 0 m/S 758 mmHg 54%
    20:00 +12°C° 0 mm 0 m/S 758 mmHg 55%
    21:00 +11°C° 0 mm 0 m/S 758 mmHg 56%
    22:00 +11°C° 0 mm 0 m/S 759 mmHg 58%
    23:00 +10°C° 0 mm 0 m/S 758 mmHg 59%

    27 September, Donnerstag

    Zeit Temperatur Niederschläge Wind Luftdruck Luftfeuchtigkeit
    00:00 +10°C° 0 mm 0 m/S 758 mmHg 60%
    01:00 +10°C° 0 mm 0 m/S 758 mmHg 61%
    02:00 +10°C° 0 mm 0 m/S 758 mmHg 62%
    03:00 +10°C° 0 mm 1 m/S 758 mmHg 63%
    04:00 +10°C° 0 mm 1 m/S 758 mmHg 64%
    05:00 +10°C° 0 mm 1 m/S 758 mmHg 64%
    06:00 +10°C° 0 mm 1 m/S 758 mmHg 65%
    07:00 +10°C° 0 mm 1 m/S 758 mmHg 65%
    08:00 +13°C° 0 mm 1 m/S 758 mmHg 59%
    09:00 +15°C° 0 mm 0 m/S 757 mmHg 52%
    10:00 +18°C° 0 mm 0 m/S 757 mmHg 45%
    11:00 +19°C° 0 mm 0 m/S 757 mmHg 41%
    12:00 +21°C° 0 mm 0 m/S 756 mmHg 37%
    13:00 +23°C° 0 mm 0 m/S 756 mmHg 34%
    14:00 +22°C° 0 mm 0 m/S 755 mmHg 35%
    15:00 +22°C° 0 mm 0 m/S 755 mmHg 36%
    16:00 +22°C° 0 mm 0 m/S 754 mmHg 37%
    17:00 +20°C° 0 mm 0 m/S 754 mmHg 42%
    18:00 +17°C° 0 mm 0 m/S 754 mmHg 48%
    19:00 +15°C° 0 mm 0 m/S 753 mmHg 54%
    20:00 +16°C° 0 mm 1 m/S 753 mmHg 56%
    21:00 +15°C° 0 mm 1 m/S 753 mmHg 58%
    22:00 +15°C° 0 mm 1 m/S 753 mmHg 60%
    23:00 +14°C° 0 mm 1 m/S 753 mmHg 62%

    28 September, Freitag

    Zeit Temperatur Niederschläge Wind Luftdruck Luftfeuchtigkeit
    00:00 +14°C° 0 mm 1 m/S 753 mmHg 64%
    01:00 +14°C° 0 mm 1 m/S 753 mmHg 66%
    02:00 +13°C° 0 mm 1 m/S 752 mmHg 68%
    03:00 +13°C° 0 mm 1 m/S 752 mmHg 69%
    04:00 +13°C° 0 mm 1 m/S 752 mmHg 71%
    05:00 +13°C° 0 mm 1 m/S 752 mmHg 72%
    06:00 +13°C° 0 mm 1 m/S 752 mmHg 73%
    07:00 +13°C° 0 mm 1 m/S 752 mmHg 75%
    08:00 +15°C° 0 mm 1 m/S 752 mmHg 68%
    09:00 +19°C° 0 mm 1 m/S 751 mmHg 62%
    10:00 +21°C° 0 mm 1 m/S 751 mmHg 56%
    11:00 +22°C° 0 mm 1 m/S 751 mmHg 52%
    12:00 +23°C° 0 mm 2 m/S 751 mmHg 48%
    13:00 +24°C° 0 mm 2 m/S 750 mmHg 44%
    14:00 +24°C° 0 mm 2 m/S 750 mmHg 45%
    15:00 +24°C° 0 mm 2 m/S 749 mmHg 46%
    16:00 +24°C° 0 mm 2 m/S 749 mmHg 47%
    17:00 +22°C° 0 mm 1 m/S 749 mmHg 53%
    18:00 +20°C° 0 mm 1 m/S 749 mmHg 58%
    19:00 +18°C° 0 mm 1 m/S 749 mmHg 64%
    20:00 +16°C° 0 mm 1 m/S 750 mmHg 66%
    21:00 +15°C° 0 mm 1 m/S 750 mmHg 68%
    22:00 +15°C° 0 mm 1 m/S 750 mmHg 69%
    23:00 +14°C° 0 mm 1 m/S 750 mmHg 71%
    Mehr zeigen